Flag for Canada Weather past 2 weeks in Cambridge, Ontario, Canada

Now
59 °F

Overcast.


Feels Like: 56 °F
Forecast: 53 / 71 °F
Wind: 14 mph from Northwest

Location: Waterloo Well

Current Time: Jul 8, 2015 at 12:54:29 AM

Latest Report: Jul 8, 2015 at 12:00 AM


Visibility: 9 mi

Pressure: 29.98 "Hg

Humidity: 88%

Dew point: 55 °F

Location of CambridgeLocation

Historic Weather in Cambridge — Graph

°F

Cambridge temperature yesterday

Maximum temperature yesterday: 79 °F (at 12:00 PM)
Minimum temperature yesterday: 61 °F (at 3:00 AM)
Average temperature yesterday: 68 °F

Past Weeks' High & Low Weather Summary

 TemperatureHumidityPressure
High82 °F (Jul 6, 3:00 PM)100% (Jun 26, 2:00 AM)30.13 "Hg (Jun 26, 2:00 AM)
Low43 °F (Jul 3, 6:00 AM)36% (Jul 3, 4:00 PM)29.66 "Hg (Jun 23, 5:00 AM)
Average63 °F79%29.93 "Hg
* Reported Jun 22 11:00 PM — Jul 7 11:00 PM, Cambridge, Weather by CustomWeather, © 2015

Note: Actual official high and low records may vary slightly from our data, if they occured in-between our weather recording intervals... More about our weather records

Advertising

Cambridge weather history for previous 24 hours

 ConditionsComfort  
Time TempWeatherWind HumidityBarometerVisibility
11:00 PM
Tue, Jul 7
61 °FOvercast.12 mph88%29.96 "Hg9 mi
10:00 PM61 °FOvercast.10 mph94%29.94 "Hg9 mi
9:54 PM61 °FOvercast.12 mph94%29.93 "Hg9 mi
9:00 PM63 °FOvercast.13 mph88%29.92 "Hg9 mi
8:00 PM63 °FCloudy.13 mph94%29.88 "Hg9 mi
7:03 PM64 °FCloudy.12 mph88%29.87 "Hg9 mi
6:00 PM66 °FOvercast.15 mph94%29.85 "Hg9 mi
5:00 PM72 °FMostly cloudy.13 mph94%29.83 "Hg9 mi
4:54 PM72 °FMostly cloudy.13 mph94%29.84 "Hg9 mi
4:00 PM70 °FLight rain. Cloudy.8 mph100%29.84 "Hg8 mi
3:56 PM70 °FLight rain. Cloudy.8 mph100%29.84 "Hg7 mi
3:04 PM73 °FThundershowers. Fog.10 mph94%29.83 "Hg2 mi
2:58 PM73 °FRain. Fog.12 mph94%29.83 "Hg2 mi
2:04 PM73 °FLight rain. Fog.12 mph89%29.83 "Hg3 mi
2:02 PM73 °FLight rain. Fog.12 mph89%29.83 "Hg2 mi
1:00 PM73 °FLight rain. Fog.15 mph89%29.83 "Hg4 mi
12:00 PM79 °FOvercast.10 mph74%29.83 "Hg6 mi
11:00 AM77 °FOvercast.14 mph74%29.85 "Hg7 mi
10:00 AM75 °FPartly sunny.12 mph78%29.87 "Hg7 mi
9:00 AM73 °FSunny.16 mph78%29.87 "Hg7 mi
8:00 AM70 °FSunny.13 mph83%29.88 "Hg7 mi
7:00 AM68 °FSunny.9 mph88%29.88 "Hg7 mi
6:00 AM66 °FPassing clouds.6 mph88%29.89 "Hg7 mi
5:00 AM63 °FClear.5 mph94%29.89 "Hg9 mi
4:00 AM61 °FClear.6 mph88%29.91 "Hg9 mi
3:00 AM61 °FClear.5 mph83%29.92 "Hg9 mi
2:00 AM63 °FClear.7 mph77%29.93 "Hg9 mi
1:00 AM63 °FClear.5 mph77%29.94 "Hg9 mi
12:00 AM64 °FClear.5 mph73%29.94 "Hg9 mi
Weather by CustomWeather, © 2015

See weather overviewHow to use our weather pages